Probability
0 0 0 0 0 0 0 0 0 0 0 13 16 23 19 13 29 23 32 48 65 74 90 90 90 97 90 81 87 94 97 90 90 84 77 61 55 45 32 23 13 13 10 6
0 0 0 0 0 0 0 0 0 0 0 13 13 16 16 23 29 35 52 55 48 68 81 90 90 87 90 81 90 97 94 94 90 77 77 65 48 42 32 23 13 13 10 10
0 0 0 0 0 0 0 0 0 0 16 23 23 16 29 23 10 26 39 42 52 58 68 81 81 81 84 94 90 87 90 90 77 68 58 55 42 39 32 26 16 19 10 10
0 0 0 0 0 0 0 0 6 19 19 19 26 19 16 16 19 26 23 23 26 32 45 55 52 58 68 68 74 61 68 68 65 55 39 32 29 23 29 23 16 23 16 10
0 0 0 0 0 0 0 3 3 13 13 16 3 13 13 10 13 16 26 26 19 19 19 39 45 45 45 52 61 58 61 65 52 42 39 35 32 26 23 23 26 16 13 10
0 0 0 0 3 6 3 3 10 13 19 10 10 19 19 16 13 19 16 16 13 13 10 16 29 39 48 45 42 32 32 32 29 26 29 29 26 29 26 29 19 6 3 6
0 0 0 0 0 0 0 16 13 16 19 13 19 42 23 13 10 13 13 13 13 16 13 13 10 13 16 16 13 13 13 10 16 13 13 13 16 19 19 6 6 6 10 10
0 0 0 6 6 6 45 52 26 19 16 26 26 16 3 0 0 6 6 6 6 10 6 6 10 6 6 3 0 0 0 0 0 0 0 0 10 13 6 6 6 6 6 6
0 0 23 16 23 45 39 45 26 19 16 26 6 3 3 0 0 0 0 3 3 0 0 0 3 3 0 0 0 0 0 0 0 0 0 0 0 0 0 0 0 0 0 0
3 3 16 13 13 19 16 23 19 19 10 10 3 3 3 0 0 0 0 0 0 0 0 0 0 0 0 0 0 0 0 0 0 0 0 0 0 0 0 0 0 0 0 3
0 10 10 6 19 19 13 10 6 10 3 10 6 6 6 3 0 0 0 0 0 0 0 0 0 0 0 0 0 0 0 0 0 0 0 0 0 0 3 3 3 0 3 0
3 13 6 23 19 13 16 6 6 10 6 3 6 6 6 3 0 0 0 0 0 0 0 0 0 0 0 0 0 0 0 0 0 0 0 0 0 0 0 0 0 0 0 0
0 0 0 0 3 3 6 3 3 6 3 3 0 0 0 0 0 0 0 0 0 0 0 0 0 0 0 0 0 0 0 0 0 0 0 0 0 0 0 0 0 0 0 0
0 0 0 0 3 6 3 3 6 3 0 0 0 0 0 0 0 0 0 0 0 0 0 0 0 0 0 0 0 0 0 0 0 0 0 0 0 0 0 0 0 0 0 0
0 0 0 0 0 0 3 3 0 0 0 0 0 0 0 0 0 0 0 0 0 0 0 0 0 0 0 0 0 0 0 0 0 0 0 0 0 0 0 0 0 0 0 0
0 0 0 0 0 3 3 0 0 0 0 0 0 0 0 0 0 0 0 0 0 0 0 0 0 0 0 0 0 0 0 0 0 0 0 0 0 0 0 0 0 0 0 0
0 0 0 0 0 0 0 0 0 0 0 0 0 0 0 0 0 0 0 0 0 0 0 0 0 0 0 0 0 0 0 0 0 0 0 0 0 0 0 0 0 0 0 0
0 0 0 0 0 0 0 0 0 0 0 0 0 0 0 0 0 0 0 0 0 0 0 0 0 0 0 0 0 0 0 0 0 0 0 0 0 0 0 0 0 0 0 0
0 0 0 0 0 0 0 0 0 0 0 0 0 0 0 0 0 0 0 0 0 0 0 0 0 0 0 0 0 0 0 0 0 0 0 0 0 0 0 0 0 0 0 0
0 0 0 0 0 0 0 0 0 0 0 0 0 0 0 0 0 0 0 0 0 0 0 0 0 0 0 0 0 0 0 0 0 0 0 0 0 0 0 0 0 0 0 0
0 0 0 0 0 0 0 0 0 0 0 0 0 0 0 0 0 0 0 0 0 0 0 0 0 0 0 0 0 0 0 0 0 0 0 0 0 0 0 0 0 0 0 0
0 0 0 0 0 0 0 0 0 0 0 0 0 0 0 0 0 0 0 0 0 0 0 0 0 0 0 0 0 0 0 0 0 0 0 0 0 0 0 0 0 0 0 0
0 0 0 0 0 0 0 0 0 0 0 0 0 0 0 0 0 0 0 0 0 0 0 0 0 0 0 0 0 0 0 0 0 0 0 0 0 0 0 0 0 0 0 0
0 0 0 0 0 0 0 0 0 0 0 0 0 0 0 0 0 0 0 0 0 0 0 0 0 0 0 0 0 0 0 0 0 0 0 0 0 0 0 0 0 0 0 0
0 0 0 0 0 0 0 0 0 0 0 0 0 0 0 0 0 0 0 0 0 0 0 0 0 0 0 0 0 0 0 0 0 0 0 0 0 0 0 0 0 0 0 0
0 0 0 0 0 0 0 0 0 0 0 0 0 0 0 0 0 0 0 0 0 0 0 0 0 0 0 0 0 0 0 0 0 0 0 0 0 0 0 0 0 0 0 0
0 0 0 0 0 0 0 0 0 0 0 0 0 0 0 0 0 0 0 0 0 0 0 0 0 0 0 0 0 0 0 0 0 0 0 0 0 0 0 0 0 0 0 0
Height
5844 5844 5844 5844 5844 5843 5843 5843 5844 5843 5842 5840 5839 5839 5838 5838 5838 5838 5838 5838 5839 5839 5839 5840 5841 5841 5842 5842 5843 5843 5843 5844 5844 5844 5844 5844 5843 5843 5842 5841 5841 5839 5838 5837
5838 5839 5839 5839 5839 5839 5838 5838 5837 5837 5837 5835 5834 5834 5834 5834 5834 5834 5834 5834 5834 5834 5835 5835 5836 5836 5837 5837 5837 5837 5837 5838 5838 5838 5837 5837 5836 5836 5835 5834 5833 5832 5831 5829
5834 5834 5834 5834 5834 5833 5833 5832 5832 5832 5832 5830 5829 5829 5829 5829 5829 5829 5829 5829 5830 5830 5830 5830 5830 5831 5831 5831 5831 5831 5831 5831 5831 5830 5830 5829 5829 5828 5827 5826 5825 5824 5822 5821
5828 5828 5829 5831 5828 5828 5828 5827 5826 5826 5825 5825 5824 5824 5824 5823 5824 5824 5824 5824 5824 5824 5824 5824 5824 5824 5824 5824 5824 5824 5824 5823 5823 5822 5822 5821 5821 5820 5818 5817 5816 5815 5813 5812
5821 5822 5823 5823 5822 5822 5822 5821 5821 5820 5819 5819 5818 5818 5817 5817 5817 5817 5817 5817 5817 5817 5817 5817 5817 5817 5817 5817 5816 5816 5815 5815 5814 5814 5813 5812 5811 5810 5809 5808 5807 5805 5803 5801
5814 5816 5817 5817 5816 5816 5817 5816 5815 5814 5813 5813 5813 5812 5812 5811 5811 5811 5810 5810 5810 5810 5809 5809 5809 5809 5809 5808 5807 5807 5806 5806 5805 5805 5804 5803 5802 5800 5799 5797 5796 5794 5792 5790
5808 5809 5810 5809 5810 5810 5812 5811 5809 5808 5807 5807 5806 5806 5806 5805 5804 5804 5803 5803 5802 5801 5801 5800 5800 5800 5800 5799 5798 5798 5797 5796 5795 5794 5793 5792 5791 5790 5788 5786 5784 5782 5780 5778
5801 5803 5804 5802 5803 5804 5804 5803 5802 5802 5801 5800 5800 5799 5798 5798 5797 5797 5796 5795 5794 5793 5792 5792 5792 5791 5790 5790 5789 5788 5788 5787 5786 5785 5783 5782 5781 5778 5776 5774 5772 5770 5768 5766
5795 5797 5796 5796 5796 5797 5797 5796 5796 5795 5795 5794 5793 5792 5791 5791 5790 5790 5789 5788 5786 5785 5784 5784 5784 5783 5782 5781 5780 5779 5778 5776 5776 5775 5773 5771 5769 5767 5765 5763 5760 5758 5755 5753
5788 5788 5788 5789 5789 5790 5790 5790 5789 5789 5788 5788 5787 5786 5785 5784 5783 5782 5781 5780 5779 5778 5777 5776 5776 5775 5774 5772 5771 5769 5768 5767 5765 5763 5761 5760 5758 5755 5753 5750 5748 5744 5741 5738
5781 5782 5782 5782 5783 5783 5783 5782 5782 5781 5781 5780 5780 5779 5778 5777 5776 5775 5774 5773 5772 5771 5770 5769 5768 5767 5765 5764 5762 5761 5759 5757 5755 5753 5751 5749 5746 5743 5740 5737 5734 5730 5727 5723
5775 5775 5776 5776 5776 5776 5775 5775 5775 5774 5773 5772 5772 5771 5770 5769 5768 5768 5767 5766 5765 5763 5762 5761 5760 5759 5757 5755 5754 5752 5750 5747 5745 5742 5740 5737 5734 5730 5726 5723 5719 5714 5710 5706
5768 5768 5768 5769 5768 5768 5768 5767 5767 5766 5765 5764 5763 5763 5762 5761 5760 5760 5759 5758 5757 5756 5754 5753 5751 5750 5748 5746 5744 5741 5739 5737 5733 5730 5727 5723 5720 5716 5712 5707 5703 5698 5693 5688
5761 5761 5761 5761 5761 5761 5760 5760 5759 5758 5757 5757 5756 5755 5754 5753 5752 5751 5750 5749 5748 5747 5745 5744 5742 5740 5738 5736 5733 5730 5727 5724 5721 5717 5713 5709 5705 5700 5695 5690 5685 5680 5674 5668
5754 5754 5754 5754 5754 5753 5753 5752 5751 5750 5750 5749 5748 5747 5746 5744 5743 5742 5741 5740 5739 5738 5736 5734 5732 5730 5727 5724 5721 5718 5715 5711 5707 5703 5698 5693 5688 5683 5677 5671 5665 5659 5654 5647
5747 5747 5747 5747 5747 5746 5745 5744 5744 5743 5741 5740 5739 5738 5737 5736 5735 5733 5732 5731 5730 5728 5726 5724 5721 5719 5716 5712 5709 5705 5701 5697 5692 5687 5682 5676 5671 5665 5658 5652 5646 5639 5633 5627
5740 5740 5740 5740 5739 5739 5738 5737 5735 5734 5733 5732 5730 5729 5728 5726 5725 5724 5722 5721 5719 5717 5715 5713 5710 5707 5703 5699 5695 5691 5686 5681 5676 5670 5664 5658 5652 5646 5639 5633 5627 5620 5614 5607
5733 5733 5733 5733 5732 5731 5730 5729 5728 5726 5725 5723 5722 5720 5718 5716 5715 5714 5712 5710 5708 5706 5704 5701 5697 5694 5690 5685 5681 5676 5670 5665 5659 5653 5647 5640 5634 5628 5621 5615 5609 5603 5596 5590
5727 5726 5726 5725 5724 5723 5722 5721 5720 5718 5717 5715 5713 5711 5709 5708 5706 5704 5702 5700 5697 5694 5691 5688 5684 5680 5675 5670 5665 5660 5654 5648 5642 5636 5630 5624 5618 5612 5606 5600 5593 5587 5581 5575
5719 5718 5718 5717 5716 5715 5714 5713 5711 5710 5708 5706 5704 5702 5700 5698 5695 5693 5691 5688 5685 5681 5678 5674 5669 5665 5660 5655 5649 5644 5638 5632 5627 5621 5615 5609 5603 5597 5592 5586 5580 5574 5568 5563
5711 5710 5709 5709 5708 5706 5705 5704 5702 5700 5699 5697 5695 5692 5690 5687 5684 5681 5678 5675 5672 5668 5664 5659 5655 5650 5645 5640 5635 5629 5624 5618 5613 5607 5602 5596 5591 5585 5580 5574 5569 5563 5558 5552
5703 5702 5700 5699 5698 5697 5696 5694 5692 5690 5688 5686 5684 5681 5678 5675 5672 5669 5665 5662 5658 5654 5649 5645 5641 5636 5631 5626 5621 5616 5611 5606 5601 5596 5590 5585 5580 5575 5570 5564 5559 5554 5549 5544
5694 5693 5692 5690 5689 5687 5686 5684 5682 5680 5677 5675 5672 5669 5666 5663 5659 5656 5653 5649 5645 5641 5637 5632 5628 5623 5619 5614 5609 5605 5600 5595 5590 5585 5580 5575 5570 5566 5561 5556 5552 5547 5542 5538
5685 5684 5682 5681 5679 5677 5675 5673 5671 5668 5666 5663 5660 5657 5654 5650 5647 5643 5640 5636 5633 5629 5625 5621 5617 5612 5608 5604 5599 5595 5591 5586 5582 5577 5572 5568 5563 5559 5554 5550 5546 5541 5537 5533
5675 5673 5672 5670 5668 5666 5664 5662 5659 5656 5653 5650 5647 5644 5641 5638 5635 5632 5628 5625 5621 5618 5614 5611 5607 5603 5599 5595 5590 5586 5582 5578 5574 5570 5565 5561 5557 5553 5549 5545 5541 5537 5534 5530
5664 5663 5661 5659 5657 5655 5652 5650 5647 5644 5641 5638 5635 5632 5630 5627 5624 5620 5617 5614 5611 5608 5604 5601 5598 5594 5590 5586 5582 5578 5575 5571 5567 5563 5559 5555 5552 5548 5545 5541 5538 5535 5532 5529
5654 5652 5650 5648 5645 5643 5641 5638 5635 5633 5630 5627 5624 5622 5619 5616 5613 5610 5607 5604 5602 5599 5596 5593 5589 5586 5582 5579 5575 5572 5568 5564 5561 5557 5554 5551 5547 5544 5541 5539 5536 5533 5530 5527
Wind_Speed
18 17 16 16 16 16 14 13 13 13 15 17 18 17 17 17 17 17 16 16 16 15 16 15 16 16 17 18 19 20 21 22 23 24 25 26 27 27 27 28 28 28 28 29
19 18 17 18 18 17 15 15 15 15 16 18 18 18 18 18 19 19 19 19 18 18 18 19 19 20 21 22 22 22 23 24 26 26 27 28 28 29 29 30 30 30 30 31
19 20 19 19 18 17 16 16 16 16 17 18 18 19 19 20 20 20 22 22 22 22 22 23 23 24 24 25 26 26 26 27 28 29 29 30 30 31 31 32 32 32 32 32
20 22 20 19 18 18 18 18 18 18 18 18 18 19 20 21 22 23 24 25 25 25 25 26 26 27 27 28 28 29 29 30 30 30 31 32 32 33 33 33 33 33 33 33
21 21 21 20 18 18 18 18 18 18 19 19 19 20 21 22 22 23 25 26 27 28 28 29 29 30 30 30 31 32 32 32 32 32 33 34 35 35 35 34 34 35 35 36
21 21 20 22 20 19 18 19 18 19 19 20 20 21 21 21 23 24 26 27 29 30 31 31 31 31 32 32 33 34 35 34 34 35 35 35 36 37 37 37 37 38 38 39
20 20 20 22 19 19 19 19 19 19 19 19 20 22 22 22 22 23 25 26 28 30 31 32 32 33 34 35 35 35 36 37 37 37 38 38 38 38 39 40 41 41 42 42
20 20 22 21 20 19 20 20 20 19 20 20 21 22 23 23 24 24 24 25 27 29 30 30 31 32 33 35 36 36 36 37 37 37 38 40 41 41 41 41 43 43 44 44
21 22 22 21 21 21 21 21 21 21 21 22 22 22 23 23 24 25 26 26 27 28 28 29 29 31 32 34 35 36 37 38 38 39 39 40 41 42 43 44 44 45 46 48
21 22 22 22 22 22 22 23 23 23 23 23 24 24 24 24 25 25 25 25 26 25 26 27 29 31 32 33 34 34 35 37 38 38 38 40 41 43 44 46 47 48 49 50
21 21 21 22 23 23 24 24 24 24 24 24 25 25 26 26 26 26 26 26 26 27 27 28 28 30 31 32 33 34 35 36 38 39 41 42 43 44 46 47 48 50 52 53
22 22 22 23 24 25 25 25 25 26 25 26 26 27 27 27 26 26 27 27 28 28 29 29 30 31 32 33 34 36 37 39 40 41 42 43 45 46 48 50 52 54 56 57
22 22 23 24 25 25 26 27 27 27 27 27 28 28 28 28 28 29 29 29 30 30 31 31 32 33 33 34 35 36 38 40 41 43 44 46 48 50 52 53 55 58 60 61
22 22 23 23 24 25 26 26 27 27 28 28 29 30 30 30 30 30 30 31 32 32 33 33 34 35 36 37 38 39 41 42 44 46 48 49 51 53 56 57 59 61 63 64
21 22 23 23 24 24 25 26 27 28 28 29 29 30 31 32 32 33 32 32 32 33 34 35 36 37 39 40 41 42 44 46 48 49 51 53 56 58 60 62 63 64 65 66
21 22 22 23 23 24 25 26 28 28 29 31 32 33 33 34 34 34 33 33 34 36 37 37 38 39 41 42 44 46 47 49 51 53 55 57 59 61 63 63 64 64 64 64
20 21 22 23 23 23 24 26 27 28 30 32 32 33 33 33 33 33 33 34 35 37 39 39 41 42 43 45 47 49 51 53 55 56 58 59 61 62 62 61 61 60 59 59
21 22 23 23 24 24 25 26 27 28 30 31 32 33 33 33 34 35 35 36 38 39 40 42 43 45 46 48 50 52 54 55 56 57 58 58 58 57 57 56 55 54 53 52
23 23 24 25 25 25 26 27 28 29 30 32 32 32 33 34 35 36 38 39 40 42 43 45 47 48 50 51 52 53 54 54 55 55 55 54 53 52 51 49 49 48 46 45
24 25 25 26 27 27 28 29 30 31 32 33 34 36 38 38 39 39 41 42 44 45 46 47 48 49 50 50 50 51 51 51 50 50 49 48 47 46 45 43 43 41 40 39
26 27 28 28 29 29 30 32 33 33 34 35 37 39 40 40 41 42 43 44 45 46 46 47 47 48 48 48 47 47 47 46 45 44 44 43 42 40 39 38 36 36 35 34
29 29 30 31 31 32 33 34 35 36 37 39 40 41 42 43 44 44 44 45 45 45 45 45 45 45 45 44 44 43 42 41 40 40 39 38 36 35 34 33 32 31 29 28
29 30 31 32 33 34 35 36 37 39 40 41 42 42 43 44 44 43 43 43 42 42 42 42 42 42 41 40 39 37 36 36 36 35 34 33 32 30 29 28 26 25 24 23
31 32 33 34 35 36 37 39 40 41 42 42 43 42 42 41 41 40 40 40 39 39 39 38 38 37 36 34 33 33 32 32 31 30 29 28 26 25 23 22 22 21 20 19
33 34 35 36 37 38 39 40 41 42 42 41 41 40 39 38 38 38 37 37 36 36 35 34 33 32 32 31 31 30 29 28 27 26 25 24 23 22 20 19 18 17 16 15
34 34 36 37 38 38 39 40 39 39 39 38 38 37 36 36 35 34 34 33 32 32 31 30 30 29 29 29 28 27 26 25 24 23 21 21 20 18 16 15 14 14 13 13
33 35 36 36 37 37 37 37 37 36 36 35 34 34 33 33 32 31 31 30 29 29 29 28 28 28 27 26 25 24 23 22 20 19 18 18 17 15 14 13 13 13 13 13
Wind_Direction
255 259 267 270 269 270 271 272 269 267 265 263 265 268 268 268 268 272 273 274 275 274 273 272 270 268 267 265 265 265 264 263 263 264 265 266 267 269 271 273 275 277 279 281
258 259 265 268 267 268 269 270 269 266 265 264 264 265 265 266 266 267 268 271 271 271 271 270 270 269 268 268 267 266 267 267 267 267 267 268 269 271 273 274 277 278 280 282
257 260 264 268 264 263 267 270 270 268 267 266 264 262 263 262 261 261 264 267 267 267 268 267 266 268 268 268 268 267 265 267 268 268 268 269 271 273 274 276 279 281 282 284
258 263 261 261 259 259 264 269 270 269 269 268 264 262 262 261 259 258 259 263 264 264 264 264 264 264 266 267 268 268 267 267 267 269 270 272 272 273 275 277 279 281 282 284
256 261 258 259 257 259 264 268 271 271 270 269 269 267 263 262 261 261 259 262 262 262 263 263 263 263 263 264 265 266 267 267 267 269 271 273 273 274 275 277 279 281 282 283
255 252 251 253 256 261 267 270 271 270 271 271 270 268 267 266 264 264 263 262 262 262 263 262 261 261 262 263 264 265 266 266 267 268 269 271 272 274 277 278 279 281 283 283
252 252 250 254 257 262 265 269 269 270 273 273 271 268 267 266 266 266 266 267 265 263 264 263 262 261 261 262 263 265 266 266 266 266 269 271 273 274 277 279 280 281 282 283
250 251 253 255 258 262 266 268 270 271 272 273 273 270 267 266 265 266 268 270 269 266 265 265 264 263 262 263 264 267 269 270 269 270 273 274 276 277 279 280 281 282 283 284
247 250 254 257 259 262 265 266 269 271 271 273 274 273 271 270 268 269 272 271 270 269 267 266 267 268 269 267 268 269 270 271 270 271 273 276 277 280 282 283 283 284 285 285
250 252 255 258 261 262 265 267 269 271 272 272 273 275 274 274 273 273 275 275 273 272 273 272 271 271 274 275 274 274 273 274 275 277 279 281 281 283 285 285 285 285 286 286
252 254 257 259 262 265 268 269 270 270 271 272 273 272 273 275 274 275 276 277 278 276 276 277 277 278 280 281 280 280 281 281 281 283 285 284 284 285 286 286 287 287 287 287
256 259 261 264 266 267 268 269 270 271 271 271 273 273 274 274 274 276 277 277 278 279 278 279 280 281 283 284 282 282 281 282 283 285 286 286 287 288 287 288 288 288 288 287
260 262 264 266 267 268 268 269 270 271 271 272 273 275 275 275 275 277 278 279 280 280 280 280 281 282 283 284 285 286 286 287 288 288 289 289 289 289 289 289 289 289 289 289
263 264 266 268 269 269 270 271 272 273 273 274 275 275 276 275 275 277 280 281 281 281 282 284 285 285 286 287 287 288 289 290 290 290 290 290 290 290 290 290 290 290 289 289
265 266 268 269 270 271 272 272 273 274 275 275 277 278 277 276 276 277 278 280 280 282 285 286 287 288 288 289 289 290 291 291 292 292 292 292 292 292 292 291 291 291 290 290
265 267 268 269 271 273 274 274 273 273 274 275 276 278 277 275 277 278 278 281 283 285 286 287 288 289 290 290 291 292 293 293 294 294 294 294 293 293 293 293 292 292 292 292
267 269 270 272 273 274 276 274 274 274 275 276 276 276 275 274 277 279 281 284 286 287 288 289 290 291 292 293 294 295 296 296 296 296 295 295 295 295 295 294 294 294 294 294
270 271 273 274 275 276 276 278 279 279 278 278 278 277 277 277 279 282 285 287 288 289 290 291 292 293 294 296 297 297 298 298 297 297 297 297 297 296 297 297 297 297 298 298
272 274 275 275 276 277 277 279 280 280 279 280 281 280 279 280 283 286 287 289 290 291 292 293 294 295 296 297 298 298 299 299 299 298 298 298 299 299 299 299 300 300 300 300
275 275 276 277 277 278 279 280 280 279 279 280 282 284 283 283 286 288 290 291 292 293 295 296 297 298 299 299 299 300 300 300 300 300 300 300 301 301 302 302 303 303 303 303
273 274 275 278 278 278 279 279 280 280 281 284 285 286 288 289 290 292 293 295 296 297 298 299 299 299 300 300 300 300 300 300 301 301 302 303 303 304 304 304 305 306 307 308
275 277 279 279 279 280 281 281 281 282 283 285 287 289 290 292 294 295 296 297 298 299 299 300 300 300 300 301 301 301 301 302 302 303 304 304 305 305 306 306 307 308 310 312
277 278 280 280 281 282 283 283 284 285 286 288 291 292 294 295 296 297 297 298 298 298 299 299 300 301 302 302 302 303 303 304 305 306 307 308 308 308 309 310 311 313 315 316
278 278 279 280 281 283 284 285 287 288 290 292 293 295 295 296 296 296 296 297 297 298 299 300 301 302 302 303 304 305 306 307 308 309 310 311 311 313 313 315 316 318 320 321
279 280 282 283 284 286 287 289 290 291 292 293 294 295 295 295 295 295 296 297 297 298 300 301 302 303 304 305 306 307 307 308 310 311 311 313 314 315 315 318 322 325 329 332
281 282 284 286 287 288 290 291 292 292 293 293 294 294 294 294 294 294 295 296 296 297 299 302 304 305 306 306 307 308 308 310 311 312 313 315 316 317 318 321 326 330 332 334
283 285 286 287 289 289 290 290 291 291 291 291 291 291 291 292 292 293 295 296 296 296 298 300 302 304 306 307 308 309 310 311 312 314 316 318 319 317 319 323 326 327 329 333